Simultaneous Nadir Overpasses (SNOs) Predictions

Prediction of SNOs between GOES-15 and TERRA Satellite Orbit:

Table of predicted SNOs for the next 14.0 days since TLE Epoch: 10/8/2022
Index Date Time (GOES-15) GOES-15 Lat,Lon TERRA Lat,Lon Distance(km) Time Diff (sec)
1 10/08/2022 06:50:46 0.30,-128.26 0.21,-128.72 52.13 80
2 10/10/2022 06:35:48 0.30,-128.30 0.86,-125.76 288.85 80
3 10/10/2022 18:57:02 -0.30,-128.30 0.22,-130.92 296.67 80
4 10/12/2022 18:47:23 -0.30,-128.33 -0.39,-127.95 44.14 80
5 10/14/2022 18:35:04 -0.29,-128.36 -1.02,-124.98 384.55 80
6 10/15/2022 06:56:26 0.30,-128.37 -0.09,-130.16 204.27 80
7 10/17/2022 06:41:27 0.29,-128.38 0.56,-127.20 135.43 80
8 10/17/2022 19:02:40 -0.29,-128.37 0.57,-132.35 451.89 80
9 10/19/2022 06:29:07 0.28,-128.40 1.17,-124.22 474.86 80
10 10/19/2022 18:50:20 -0.28,-128.39 -0.05,-129.37 112.28 80
11 10/21/2022 18:40:40 -0.28,-128.40 -0.69,-126.40 227.18 80
